Weather History for PAJN - March, 2014

Change the Weather History Date:

Thursday, March 6, 2014

  Actual Average Record
Temperature  
Mean Temperature 19 °F 32 °F  
Max Temperature 32 °F 37 °F 44 °F (2015)
Min Temperature 6 °F 27 °F -12 °F (1974)
Degree Days  
Heating Degree Days 46 33  
Month to date heating degree days 259 199  
Since 1 July heating degree days 5900 6036  
Cooling Degree Days 0 0  
Month to date cooling degree days 0 0  
Year to date cooling degree days 0 0  
Moisture  
Dew Point 4 °F    
Average Humidity 54    
Maximum Humidity 83    
Minimum Humidity 25    
Precipitation  
Precipitation 0.00 in 0.13 in 1.09 in (1971)
Month to date precipitation 0.00 0.82  
Year to date precipitation 12.13 10.30  
Snow  
Snow 0.00 in 0.40 in 15.70 in (1971)
Month to date snowfall 0.0 3.0  
Since 1 July snowfall 90.8 77.0  
Snow Depth 3.00 in    
Sea Level Pressure  
Sea Level Pressure 29.71 in    
Wind  
Wind Speed 1 mph (ESE)    
Max Wind Speed 16 mph    
Max Gust Speed 19 mph    
Visibility 10 miles    
Events      
T = Trace of Precipitation, MM = Missing Value Source: NWS Daily Summary

Daily Weather History Graph

Daily Weather History Graph

Search for Another Location

Airport or City:

Trip Planner

Search our weather history database for the weather conditions in past years. The results will help you decide how hot, cold, wet, or windy it might be!

Date:

Astronomy

Mar. 06, 2014 Rise Set
Actual Time 6:39 AM AKST 5:40 PM AKST
Civil Twilight 5:59 AM AKST 6:20 PM AKST
Nautical Twilight 5:13 AM AKST 7:06 PM AKST
Astronomical Twilight 4:26 AM AKST 7:53 PM AKST
Moon 8:36 AM AKST 12:08 AM AKST
Length of Visible Light 12h 20m
Length of Day
11h 01m
Waxing Crescent, 34% of the Moon is Illuminated
Mar 6
Waxing Crescent
Mar 8
First Quarter
Mar 16
Full
Mar 23
Last Quarter
Mar 30
New

Hourly Weather History & Observations

Time (AKST) Temp. Windchill Dew Point Humidity Pressure Visibility Wind Dir Wind Speed Gust Speed Precip Events Conditions
12:53 AM 10.0 °F - 3.9 °F 76% 29.64 in 10.0 mi Calm Calm - N/A   Clear
1:53 AM 10.0 °F - 3.9 °F 76% 29.64 in 10.0 mi Calm Calm - N/A   Clear
3:53 AM 10.9 °F - 5.0 °F 77% 29.63 in 10.0 mi Calm Calm - N/A   Clear
4:53 AM 8.1 °F - 5.0 °F 87% 29.63 in 10.0 mi Calm Calm - N/A   Clear
5:53 AM 9.0 °F - 3.9 °F 80% 29.64 in 10.0 mi Calm Calm - N/A   Clear
6:53 AM 7.0 °F - 1.9 °F 80% 29.65 in 10.0 mi Calm Calm - N/A   Clear
7:53 AM 10.9 °F - 5.0 °F 77% 29.66 in 10.0 mi Calm Calm - N/A   Clear
8:53 AM 16.0 °F - 10.9 °F 81% 29.67 in 10.0 mi Calm Calm - N/A   Clear
9:53 AM 21.9 °F - 9.0 °F 58% 29.68 in 10.0 mi Calm Calm - N/A   Clear
10:53 AM 28.9 °F - -0.0 °F 29% 29.69 in 10.0 mi Calm Calm - N/A   Clear
11:53 AM 32.0 °F - -0.0 °F 26% 29.70 in 10.0 mi Calm Calm - N/A   Clear
12:53 PM 30.9 °F 23.5 °F -0.9 °F 26% 29.70 in 10.0 mi SE 8.1 mph - N/A   Clear
1:53 PM 30.9 °F 21.2 °F 1.0 °F 28% 29.71 in 10.0 mi SSE 12.7 mph - N/A   Clear
2:53 PM 30.9 °F 21.2 °F 1.9 °F 29% 29.72 in 10.0 mi SE 12.7 mph - N/A   Clear
3:53 PM 30.0 °F 19.1 °F 1.0 °F 29% 29.73 in 10.0 mi SE 15.0 mph - N/A   Clear
4:53 PM 28.9 °F 19.2 °F -0.9 °F 28% 29.74 in 10.0 mi SE 11.5 mph - N/A   Clear
5:53 PM 26.1 °F 20.5 °F 1.9 °F 35% 29.75 in 10.0 mi ENE 4.6 mph - N/A   Clear
6:53 PM 25.0 °F 18.1 °F 3.0 °F 39% 29.77 in 10.0 mi NE 5.8 mph - N/A   Clear
7:53 PM 24.1 °F 18.2 °F 1.9 °F 38% 29.78 in 10.0 mi NE 4.6 mph - N/A   Clear
8:53 PM 19.9 °F - 7.0 °F 57% 29.81 in 10.0 mi Calm Calm - N/A   Clear
9:53 PM 17.1 °F - 8.1 °F 68% 29.83 in 10.0 mi Calm Calm - N/A   Clear
10:53 PM 14.0 °F - 7.0 °F 74% 29.85 in 10.0 mi Calm Calm - N/A   Clear
11:53 PM 12.9 °F - 6.1 °F 74% 29.84 in 10.0 mi Calm Calm - N/A   Clear